Location: Bednik
(45.3500°N, 16.3833°E)
Time: 04:41:00
(UTC+00:00)

Cosmos 2278 - Pass Details

Date: 08 August 2020
Orbit: 839 x 853 km, 71.1° (Epoch: 19 September)

Event Time Altitude Azimuth Distance (km) Brightness Sun altitude
Rises 20:05:39 0° 334° (NNW) 3,432 8.3 -17.2°
Reaches altitude 10° 20:08:07 10° 334° (NNW) 2,492 7.3 -17.5°
Maximum altitude 20:13:52 89° 62° (ENE) 859 3.7 -18.2°
Enters shadow 20:16:42 31° 155° (SSE) 1,441 4.4 -18.5°
